Flag for Germany Weather past 2 weeks in Gotha, Thuringia, Germany

Now
37 °F

Partly sunny.


Feels Like: 33 °F
Forecast: 32 / 47 °F
Wind: 5 mph from West

Location: Erfurt-Bindersleben

Current Time: Mar 6, 2015 at 9:40:46 AM

Latest Report: Mar 6, 2015 at 9:00 AM


Visibility: 16 mi

Pressure: 30.63 "Hg

Humidity: 85%

Dew point: 33 °F

Location of GothaLocation

Historic Weather in Gotha — Graph

°F

Gotha temperature yesterday

Maximum temperature yesterday: 41 °F (at 3:00 PM)
Minimum temperature yesterday: 33 °F (at 7:00 AM)
Average temperature yesterday: 37 °F

Past Weeks' High & Low Weather Summary

 TemperatureHumidityPressure
High47 °F (Feb 26, 3:00 PM)98% (Feb 28, 5:00 AM)30.63 "Hg (Feb 28, 5:00 AM)
Low22 °F (Feb 20, 3:00 AM)46% (Feb 26, 2:00 PM)29.44 "Hg (Feb 21, 8:00 AM)
Average37 °F79%29.97 "Hg
* Reported Feb 19 8:00 AM — Mar 6 8:00 AM, Gotha, Weather by CustomWeather, © 2015

Note: Actual official high and low records may vary slightly from our data, if they occured in-between our weather recording intervals... More about our weather records

Advertising

Gotha weather history for previous 24 hours

 ConditionsComfort  
Time TempWeatherWind HumidityBarometerVisibility
8:00 AM
Fri, Mar 6
33 °FPartly sunny.5 mph91%30.63 "Hg16 mi
7:00 AM33 °FPartly sunny.5 mph88%30.63 "Hg14 mi
6:00 AM35 °FOvercast.5 mph86%30.63 "Hg19 mi
5:00 AM35 °FOvercast.3 mph89%30.63 "Hg19 mi
4:00 AM35 °FOvercast.5 mph87%30.62 "Hg19 mi
3:00 AM35 °FOvercast.5 mph89%30.61 "Hg19 mi
2:00 AM36 °FOvercast.5 mph88%30.63 "Hg19 mi
1:00 AM35 °FOvercast.5 mph89%30.63 "Hg19 mi
12:00 AM36 °FOvercast.3 mph88%30.63 "Hg25 mi
10:00 PM
Thu, Mar 5
36 °FOvercast.5 mph87%30.63 "Hg31 mi
9:00 PM35 °FPassing clouds.3 mph87%30.62 "Hg31 mi
8:00 PM36 °FOvercast.3 mph85%30.61 "Hg37 mi
7:00 PM38 °FOvercast.3 mph83%30.61 "Hg37 mi
6:00 PM39 °FOvercast.6 mph78%30.59 "Hg37 mi
5:00 PM40 °FPartly sunny.6 mph71%30.58 "Hg37 mi
4:00 PM40 °FOvercast.7 mph70%30.57 "Hg37 mi
3:00 PM41 °FOvercast.5 mph74%30.57 "Hg37 mi
2:00 PM39 °FOvercast.6 mph79%30.58 "Hg31 mi
1:00 PM39 °FOvercast.6 mph83%30.58 "Hg37 mi
12:00 PM39 °FOvercast.7 mph75%30.58 "Hg43 mi
11:00 AM39 °FPartly sunny.7 mph78%30.57 "Hg43 mi
10:00 AM36 °FPartly sunny.6 mph77%30.58 "Hg43 mi
9:00 AM35 °FScattered clouds.6 mph84%30.57 "Hg37 mi
Weather by CustomWeather, © 2015

See weather overviewHow to use our weather pages